Location: Proctor
(47.8934°N, 114.3048°W)
Time: 21:01:39
(UTC+00:00)

AO-92 - Pass Details

Date: 03 July 2022
Orbit: 469 x 481 km, 97.4° (Epoch: 13 August)

Event Time Altitude Azimuth Distance (km) Brightness Sun altitude
Exits shadow 06:17:18 18° 220° (SW) 1,227 ? -16.7°
Maximum altitude 06:19:04 27° 264° (W) 951 ? -16.8°
Drops below altitude 10° 06:22:11 10° 325° (NW) 1,669 ? -16.9°
Sets 06:24:29 0° 337° (NNW) 2,557 ? -17.1°
